Location: Unnamed
(48.6007°N, 2.4808°E)
Time: 04:05:10
(UTC+01:00)

FENGYUN 1C DEB - Pass Details

Date: 09 December 2023
Orbit: 508 x 828 km, 98.6° (Epoch: 21 February)

Event Time Altitude Azimuth Distance (km) Brightness Sun altitude
Rises 06:20:18 0° 4° (N) 3,359 ? -20.4°
Reaches altitude 10° 06:23:11 10° 348° (NNW) 2,452 ? -19.9°
Enters shadow 06:23:52 13° 343° (NNW) 2,275 ? -19.8°
